Probability
0 0 1 3 3 3 2 1 1 2 2 3 6 7 8 7 6 6 6 6 5 4 3 3 4 4 5 6 6 6 6 6 5 4 2 1 0 1 2 3 3 3 3
1 1 2 3 3 4 3 1 1 1 1 2 4 6 8 8 7 6 6 6 4 3 4 4 4 5 5 6 6 6 6 6 5 4 2 1 0 0 1 3 3 3 3
1 1 1 3 4 4 3 2 2 1 0 1 3 5 7 8 8 6 6 5 3 3 3 4 5 6 7 7 8 7 7 7 6 4 3 1 1 1 1 2 3 4 4
1 0 1 3 4 3 2 2 2 2 1 1 3 5 6 7 7 5 4 4 3 3 2 3 4 6 7 9 10 9 9 8 6 5 3 3 2 2 2 3 4 5 6
1 1 1 2 3 3 2 2 3 2 2 2 3 4 5 6 6 5 3 3 3 3 2 1 2 3 5 8 9 10 9 9 8 6 5 4 4 3 3 3 4 5 6
3 4 3 1 1 2 2 2 2 2 2 2 2 3 4 5 6 5 4 3 3 2 1 1 1 2 3 5 7 8 9 9 9 8 6 5 5 4 3 3 3 4 5
4 5 4 1 1 2 1 0 1 1 1 1 2 2 3 5 5 5 4 3 3 1 0 1 3 4 4 4 5 7 8 8 8 8 6 5 5 6 4 4 4 3 3
4 4 3 2 3 3 1 1 1 1 1 1 2 2 2 3 4 3 3 3 2 1 0 1 3 4 5 5 4 5 7 7 7 6 5 4 5 6 6 5 5 4 3
4 4 4 4 5 4 4 3 3 3 3 3 4 4 3 2 2 1 1 1 1 0 0 1 2 3 4 5 5 5 6 6 6 6 5 4 5 6 7 6 5 5 4
6 6 6 6 6 6 7 6 6 6 5 5 6 7 5 3 2 1 0 0 0 0 0 1 2 3 4 6 5 5 5 5 5 6 7 6 6 7 7 6 6 6 5
7 7 6 7 7 7 8 9 9 8 7 7 7 7 6 5 4 3 1 1 0 0 0 1 2 3 4 6 6 5 4 5 5 6 7 7 7 6 6 6 5 4 4
7 6 6 7 8 9 10 12 13 12 11 10 10 8 6 6 5 4 2 1 0 0 1 2 3 3 2 4 5 4 3 4 4 4 5 5 5 5 5 5 4 2 2
5 5 5 7 9 11 12 14 14 14 14 14 12 10 7 6 4 3 2 1 1 1 2 3 4 3 3 4 5 3 3 3 3 3 3 3 4 4 5 5 4 1 1
4 4 5 6 10 13 14 14 14 14 16 15 14 11 9 6 4 3 4 4 2 2 2 3 4 5 6 7 6 4 3 3 3 3 3 3 3 4 4 4 2 1 0
7 8 6 7 11 13 14 13 13 15 15 14 12 11 8 6 5 5 6 6 5 3 3 4 5 7 7 7 7 5 4 3 2 2 2 3 3 3 3 1 1 0 0
12 12 9 8 9 11 11 12 13 14 15 13 11 10 9 7 6 7 7 7 7 5 5 6 8 8 7 5 5 6 5 4 2 1 1 1 2 2 1 0 0 0 0
14 14 12 9 6 6 8 11 12 13 15 14 12 10 9 9 8 8 9 9 9 8 7 8 9 9 7 6 5 6 6 4 2 0 0 0 1 1 0 0 0 0 0
15 15 14 12 9 7 8 11 12 13 15 15 13 11 10 9 8 9 10 11 11 10 9 9 10 9 8 6 6 5 4 3 2 0 0 0 0 0 0 0 0 0 0
19 18 18 17 15 12 11 12 12 13 15 15 13 12 11 9 8 10 11 11 11 12 11 10 10 10 8 7 5 3 2 2 1 0 0 0 0 0 0 0 0 0 0
21 20 20 20 17 14 13 12 12 14 15 15 13 12 10 8 7 8 9 10 11 12 13 11 9 8 9 7 5 2 2 2 2 1 1 1 1 1 1 0 0 0 0
22 21 21 20 17 14 12 12 12 13 15 15 14 12 10 8 6 5 6 8 9 11 11 9 7 7 8 8 5 3 3 3 2 3 2 2 3 4 3 1 0 0 0
22 22 21 20 17 14 10 7 8 11 13 14 14 13 10 7 4 3 3 4 5 6 7 7 7 7 8 7 6 5 4 4 3 4 4 3 4 5 5 3 1 0 0
22 22 21 18 16 12 6 3 3 7 11 13 13 12 10 6 4 3 3 4 4 5 5 5 6 7 7 8 8 6 5 6 6 6 6 5 5 5 4 3 2 0 0
21 20 20 19 16 11 4 0 1 4 9 12 12 13 12 10 6 4 6 7 9 8 5 4 5 6 6 7 7 6 7 8 8 6 6 6 5 4 4 5 3 1 0
19 18 18 18 15 9 3 0 1 5 9 11 13 14 12 10 7 4 7 10 11 11 8 6 5 4 4 4 4 4 6 7 7 5 6 7 6 4 6 8 7 4 2
16 16 15 14 11 7 2 1 2 5 9 12 15 13 9 6 4 4 7 9 10 11 11 8 5 4 3 2 1 2 4 5 4 4 6 8 8 7 8 9 9 7 6
Wind_Speed
1 1 1 0 0 1 1 1 1 0 1 2 2 2 1 1 1 1 3 7 6 5 6 7 7 7 7 8 8 8 8 8 9 9 10 9 9 9 9 9 9 9 9
1 0 1 0 0 1 1 1 0 0 0 1 1 1 1 1 1 1 1 5 7 6 5 5 6 6 7 7 7 7 8 8 8 8 8 9 9 9 10 9 9 9 9
1 0 0 0 1 1 0 0 0 0 1 2 1 1 0 0 1 0 1 1 4 6 6 4 4 5 6 7 7 7 7 6 7 7 7 7 8 9 10 9 10 10 9
1 1 1 0 0 0 0 1 0 0 1 0 1 1 1 1 1 1 1 1 1 2 5 6 4 4 4 6 7 7 6 6 6 6 7 8 8 9 10 10 10 9 10
1 1 1 1 0 0 0 0 1 0 1 0 1 1 1 1 1 1 1 1 1 2 2 5 6 5 5 5 6 6 7 6 6 6 7 8 8 9 9 9 9 9 10
1 1 1 1 1 0 0 0 1 0 1 0 0 1 1 1 1 0 1 1 1 2 2 2 4 5 6 5 5 5 6 6 6 6 6 6 7 7 7 9 9 9 9
1 1 1 1 1 1 0 1 1 2 1 1 1 1 2 2 1 1 0 0 1 2 2 3 3 2 4 6 6 5 5 6 5 5 5 5 6 7 7 8 8 8 8
1 1 1 2 1 1 1 1 1 1 1 1 2 2 2 2 2 1 1 1 0 1 2 3 2 2 2 2 4 6 5 5 5 5 4 4 4 5 6 7 7 7 7
2 1 1 1 1 2 2 2 2 2 1 1 1 2 2 0 1 2 1 1 0 1 1 1 2 2 3 2 2 5 5 4 5 4 4 4 3 4 4 5 6 7 7
2 2 2 2 2 1 1 2 2 2 2 2 1 1 2 2 2 1 2 1 1 1 1 1 1 2 2 2 2 2 4 3 4 4 4 4 3 3 3 4 4 5 5
2 2 2 2 2 1 1 1 1 2 2 2 1 1 1 1 3 2 1 1 1 0 0 1 1 1 1 1 2 3 4 3 3 3 3 3 3 3 3 3 3 3 4
2 2 2 2 2 2 2 2 2 2 2 2 3 2 2 2 1 2 2 2 1 0 0 1 1 1 1 1 1 5 4 4 3 2 2 2 2 2 3 3 3 3 3
2 2 2 2 2 2 2 2 2 2 2 2 3 2 2 2 2 2 3 2 2 1 1 1 1 1 1 1 1 4 5 4 4 3 2 2 2 2 2 2 3 2 2
1 2 2 2 3 3 2 2 2 2 2 2 3 2 2 2 2 3 2 2 3 2 2 1 0 1 1 1 1 4 4 5 4 4 3 3 3 2 2 2 2 2 1
2 3 3 3 2 2 2 3 2 2 2 2 2 2 2 2 2 2 2 3 4 4 2 1 1 1 1 1 1 3 3 5 5 4 4 4 4 3 3 3 3 2 2
3 3 3 3 2 2 2 3 2 1 1 1 1 1 2 2 2 2 2 3 4 4 3 1 1 1 1 2 2 2 3 7 6 5 4 4 4 4 5 4 4 3 3
4 4 3 3 3 3 2 2 2 1 2 1 1 1 2 2 2 2 2 2 2 3 3 2 1 0 1 2 1 2 2 3 4 7 6 5 5 6 6 6 5 4 4
4 4 4 4 3 3 3 3 3 2 3 2 2 2 2 2 2 2 2 2 2 2 3 3 2 1 2 2 2 3 2 3 2 6 7 6 6 7 7 6 6 5 5
4 4 4 4 4 3 3 4 3 3 3 3 3 3 3 2 2 2 3 2 2 2 3 3 3 1 2 2 2 3 3 2 3 4 7 7 8 7 7 7 6 6 5
4 4 4 4 4 4 4 4 4 4 4 4 4 3 3 3 3 3 3 3 3 3 3 3 3 2 2 1 2 2 3 3 3 3 3 4 7 9 8 8 7 7 6
5 4 4 5 5 5 4 4 4 5 4 4 4 4 4 2 2 3 3 3 3 3 3 3 3 3 2 2 3 3 3 3 3 3 3 3 4 4 6 7 8 7 6
4 4 4 5 5 4 2 2 4 4 4 5 4 4 4 4 4 5 4 5 5 4 4 4 4 4 4 4 3 4 3 3 3 2 3 3 3 3 3 4 6 7 7
4 4 5 5 5 3 3 3 4 5 5 4 4 5 5 3 4 4 5 6 6 6 6 7 6 6 5 4 4 5 4 5 4 2 3 4 3 3 3 3 7 8 7
3 4 4 4 4 4 5 5 5 6 5 5 5 5 4 4 3 4 5 5 4 4 5 6 6 6 5 3 4 5 5 5 5 3 3 5 3 4 3 3 8 9 8
3 3 3 3 4 3 4 5 5 5 5 5 5 4 4 4 2 3 5 5 4 4 3 4 4 5 4 4 4 4 4 4 4 3 3 4 4 4 3 4 6 10 9
3 3 2 2 2 2 3 4 5 5 4 4 4 4 3 2 2 2 5 4 5 4 4 4 4 5 6 6 7 6 5 4 4 3 2 4 4 3 3 3 3 5 6
Wind_Direction
111 99 87 49 334 73 136 180 166 179 202 178 174 161 180 213 247 234 141 145 166 186 195 200 206 205 201 197 195 194 199 201 204 205 207 211 212 211 214 216 218 218 217
106 112 117 74 37 56 23 358 357 162 190 118 133 128 197 202 186 223 195 155 164 173 183 197 205 203 201 200 197 199 203 206 209 209 211 213 212 213 217 221 223 222 220
120 185 157 196 42 64 108 184 100 120 142 136 127 128 160 185 158 157 195 186 161 159 166 178 188 198 200 200 198 200 201 203 207 208 210 211 213 215 218 222 228 225 220
170 219 187 180 115 204 180 145 196 120 100 121 124 111 107 125 146 191 182 175 181 166 159 165 177 183 186 194 196 198 195 199 202 209 212 213 214 219 223 225 227 226 223
162 204 177 78 221 187 248 232 115 189 141 116 162 150 151 127 143 179 182 172 168 183 178 153 172 182 190 197 202 206 201 199 202 211 215 216 218 221 223 222 225 227 225
165 246 169 163 217 173 201 15 64 16 301 268 290 95 163 185 223 173 225 179 170 186 197 197 190 177 181 192 198 201 198 199 199 205 217 222 222 224 226 222 224 225 225
172 265 300 174 222 168 192 204 210 179 208 197 214 191 173 181 189 166 226 218 157 183 191 210 228 210 177 179 192 196 201 202 204 208 215 227 230 226 225 225 224 222 220
203 209 229 234 195 169 168 193 223 243 210 212 253 241 205 164 179 154 159 167 189 191 192 200 196 208 230 198 149 180 195 205 209 213 220 223 225 222 222 218 215 213 216
201 237 230 255 223 215 167 189 211 233 250 222 259 282 280 140 137 160 167 145 144 271 243 195 207 213 219 216 185 173 187 201 210 212 213 217 220 217 213 213 215 211 214
205 211 215 218 238 238 180 216 181 241 258 251 175 278 315 347 290 208 180 157 154 273 299 280 229 208 211 201 165 135 160 182 205 213 218 220 214 205 203 207 210 198 203
197 201 205 209 225 240 240 267 233 249 252 273 270 237 223 210 251 269 261 245 214 251 302 300 290 258 237 209 200 134 143 172 189 202 211 207 202 200 199 200 202 203 208
187 184 204 214 223 235 229 236 240 222 257 281 283 268 258 259 261 264 266 258 271 284 311 303 270 249 248 218 183 127 151 158 168 178 191 200 198 196 202 202 204 211 218
190 182 210 220 229 232 240 242 226 267 252 250 256 266 273 275 293 281 271 281 283 262 227 248 261 248 236 230 155 146 160 161 168 171 185 185 173 176 187 190 194 197 204
222 183 201 214 227 237 241 235 246 244 250 248 254 270 266 273 272 270 275 279 269 256 238 255 225 219 268 246 144 186 165 159 170 175 179 175 164 166 177 186 191 185 186
213 192 201 207 218 229 245 246 248 261 261 256 251 229 251 269 263 269 267 260 269 272 266 242 234 173 239 253 168 207 186 154 169 179 180 177 172 179 187 189 195 187 178
212 203 205 210 216 222 227 243 233 230 246 257 269 292 274 279 295 276 265 263 272 278 283 276 250 259 282 261 157 234 205 158 168 184 193 196 196 201 196 194 197 195 193
202 205 206 206 205 206 208 218 237 228 243 261 274 258 266 292 281 275 271 272 272 273 268 280 283 169 212 265 221 248 227 211 180 182 197 207 214 212 201 198 200 198 199
201 199 200 200 208 208 217 224 233 228 231 235 243 254 254 249 259 276 277 273 282 283 268 275 279 242 224 227 224 241 237 225 223 171 191 206 212 211 205 202 202 200 203
200 203 203 208 215 218 224 228 231 235 237 239 243 245 249 253 260 274 268 266 260 255 265 266 264 254 244 236 240 237 235 244 243 185 187 195 200 203 200 202 203 202 203
196 202 207 212 217 219 223 228 230 233 237 238 240 244 246 246 253 264 261 266 270 266 252 258 264 251 238 231 244 246 240 222 248 242 221 198 187 194 195 198 202 206 208
205 206 213 214 221 223 222 228 234 231 233 237 239 243 244 251 290 285 284 276 267 264 260 259 261 261 254 252 250 258 257 246 233 244 241 225 198 201 197 197 200 205 208
216 215 218 222 229 232 161 208 251 245 238 238 241 246 241 222 235 246 264 273 278 269 279 280 270 272 264 256 258 260 266 257 246 220 245 239 232 229 213 205 175 186 198
220 222 224 224 227 214 177 204 239 253 245 243 244 245 253 241 235 252 237 224 234 241 253 270 279 284 280 268 258 255 256 266 270 267 252 248 232 244 233 182 159 177 192
224 230 233 233 235 210 181 208 233 241 247 242 240 240 247 255 260 274 268 260 254 244 243 252 268 277 283 286 261 258 257 253 255 243 243 258 247 242 237 205 173 184 194
220 226 225 232 236 216 184 207 235 240 236 239 236 237 245 253 259 271 265 265 265 262 236 239 259 269 285 279 273 265 253 250 256 246 222 252 256 251 233 221 189 184 193
216 225 220 226 226 216 167 192 228 245 243 247 236 226 202 240 242 244 254 257 262 270 269 250 239 241 248 243 231 246 257 256 260 257 216 240 250 249 246 222 209 189 196